Back to catalog

CZ-6A DEB

AlivePO
NORAD 64657·DEBRIS·🇨🇳 China

Launched Aug 6, 2024 from Taiyuan Satellite Launch Center

Loading…

Next Passes (next 24 hours)

TLE

FreshSource: Space-Track

Epoch: Sep 14, 2026, 05:57 UTC

1 64657U 24140AEX 26257.24836494  .00002547  00000-0  80660-3 0  9992
2 64657  88.3054 197.9316 0040759  87.7947 272.7919 14.39348105 99172

Track CZ-6A DEB in real time with AllMySat

Download on the App Store